Mason City, IA

6:56 PM CST on December 12, 2017 (GMT -0600)
Mason City Municipal

Weather History for KMCW - July, 2014

Change the Weather History Date:

Sunday, July 6, 2014

  Actual Average Record
Temperature  
Mean Temperature 78 °F 72 °F  
Max Temperature 89 °F 84 °F 103 °F (1936)
Min Temperature 66 °F 61 °F 46 °F (1950)
Degree Days  
Heating Degree Days 0 0  
Month to date heating degree days 9 0  
Since 1 June heating degree days 22 44  
Since 1 July heating degree days 9 0  
Cooling Degree Days 13 7  
Month to date cooling degree days 17 42  
Year to date cooling degree days 206 215  
Since 1 June cooling degree days 153 180  
Growing Degree Days 28 (Base 50)    
Moisture  
Dew Point 69 °F    
Average Humidity 73    
Maximum Humidity 100    
Minimum Humidity 45    
Precipitation  
Precipitation 0.00 in 0.16 in 2.10 in (1907)
Month to date precipitation 0.12 0.92  
Year to date precipitation 22.80 18.54  
Snow  
Snow 0.00 in 0.00 in - ()
Month to date snowfall 0.0 0.0  
Since 1 June snowfall 0.0 0.0  
Since 1 July snowfall 0.0 0.0  
Snow Depth 0.00 in    
Sea Level Pressure  
Sea Level Pressure 29.83 in    
Wind  
Wind Speed 10 mph (SSW)    
Max Wind Speed 21 mph    
Max Gust Speed 24 mph    
Visibility 5 miles    
Events Fog    
T = Trace of Precipitation, MM = Missing Value Source: NWS Daily Summary

Daily Weather History Graph

Daily Weather History Graph

Search for Another Location

Airport or City:

Trip Planner

Search our weather history database for the weather conditions in past years. The results will help you decide how hot, cold, wet, or windy it might be!

Date:

Astronomy

Jul. 06, 2014 Rise Set
Actual Time 5:40 AM CDT 8:55 PM CDT
Civil Twilight 5:05 AM CDT 9:30 PM CDT
Nautical Twilight 4:20 AM CDT 10:15 PM CDT
Astronomical Twilight 3:24 AM CDT 11:10 PM CDT
Moon 2:50 PM CDT (7/6) 1:06 AM CDT (7/6)
Length of Visible Light 16h 25m
Length of Day
15h 15m
Waxing Gibbous, 62% of the Moon is Illuminated
Jul 6
Waxing Gibbous
Jul 12
Full
Jul 18
Last Quarter
Jul 26
New
Aug 3
First Quarter

Hourly Weather History & Observations

Time (CDT) Temp. Heat Index Dew Point Humidity Pressure Visibility Wind Dir Wind Speed Gust Speed Precip Events Conditions
12:02 AM 66.9 °F - 66.9 °F 100% 29.98 in 1.0 mi SSE 10.4 mph - N/A   Mist
12:53 AM 66.9 °F - 66.9 °F 100% 29.93 in 1.0 mi SSE 10.4 mph - N/A   Overcast
1:01 AM 66.9 °F - 66.9 °F 100% 29.95 in 0.8 mi SSE 10.4 mph - N/A   Mist
1:10 AM 66.9 °F - 66.9 °F 100% 29.95 in 1.0 mi SSE 11.5 mph - N/A   Mist
1:53 AM 66.9 °F - 66.9 °F 100% 29.89 in 1.8 mi SSE 10.4 mph - N/A   Overcast
2:23 AM 66.9 °F - 66.9 °F 100% 29.90 in 1.8 mi South 10.4 mph - N/A   Overcast
2:32 AM 66.9 °F - 66.9 °F 100% 29.91 in 2.0 mi South 9.2 mph - N/A   Overcast
2:48 AM 66.2 °F - 66.2 °F 100% 29.90 in 3.0 mi South 10.4 mph - N/A   Overcast
2:53 AM 68.0 °F - 68.0 °F 100% 29.87 in 3.0 mi South 9.2 mph - N/A   Overcast
3:53 AM 68.0 °F - 68.0 °F 100% 29.87 in 3.0 mi South 6.9 mph - N/A   Overcast
4:53 AM 68.0 °F - 68.0 °F 100% 29.83 in 3.0 mi SSE 6.9 mph - N/A   Overcast
5:08 AM 68.0 °F - 68.0 °F 100% 29.85 in 2.0 mi SSE 8.1 mph - N/A   Overcast
5:18 AM 68.0 °F - 68.0 °F 100% 29.84 in 1.5 mi SSE 10.4 mph - N/A   Overcast
5:44 AM 68.0 °F - 68.0 °F 100% 29.86 in 0.8 mi South 8.1 mph - N/A   Overcast
5:53 AM 68.0 °F - 68.0 °F 100% 29.84 in 0.8 mi South 6.9 mph - N/A   Mist
6:10 AM 68.0 °F - 68.0 °F 100% 29.88 in 0.2 mi South 6.9 mph - N/A Fog Fog
6:53 AM 69.1 °F - 69.1 °F 100% 29.86 in 0.2 mi SSW 6.9 mph - N/A Fog Fog
7:53 AM 69.1 °F - 69.1 °F 100% 29.86 in 0.2 mi South 9.2 mph - N/A Fog Fog
8:09 AM 69.1 °F - 69.1 °F 100% 29.87 in 0.5 mi South 10.4 mph - N/A Fog Fog
8:17 AM 69.1 °F - 69.1 °F 100% 29.87 in 0.2 mi South 11.5 mph - N/A Fog Fog
8:46 AM 69.8 °F - 69.8 °F 100% 29.90 in 0.5 mi NNW 8.1 mph - N/A Fog Fog
8:53 AM 69.1 °F - 69.1 °F 100% 29.84 in 0.8 mi Calm Calm - N/A   Overcast
9:09 AM 69.1 °F - 69.1 °F 100% 29.88 in 1.2 mi Calm Calm - N/A   Overcast
9:35 AM 70.0 °F - 70.0 °F 100% 29.87 in 2.0 mi SSW 4.6 mph - N/A   Overcast
9:48 AM 69.8 °F - 69.8 °F 100% 29.87 in 3.0 mi South 5.8 mph - N/A   Overcast
9:53 AM 70.0 °F - 70.0 °F 100% 29.84 in 4.0 mi SSW 6.9 mph - N/A   Overcast
10:53 AM 73.0 °F - 71.1 °F 93% 29.81 in 4.0 mi SSW 11.5 mph - N/A   Overcast
11:42 AM 75.0 °F - 72.0 °F 90% 29.83 in 6.0 mi SSW 11.5 mph - N/A   Overcast
11:53 AM 75.0 °F - 72.0 °F 90% 29.79 in 6.0 mi South 10.4 mph - N/A   Overcast
12:53 PM 77.0 °F - 73.0 °F 88% 29.78 in 7.0 mi SW 13.8 mph - N/A   Overcast
1:46 PM 80.1 °F 84.5 °F 73.9 °F 81% 29.80 in 6.0 mi SSW 13.8 mph - N/A   Haze
1:53 PM 80.1 °F 84.5 °F 73.9 °F 81% 29.76 in 6.0 mi SW 12.7 mph - N/A   Haze
2:36 PM 84.0 °F 91.9 °F 75.0 °F 74% 29.78 in 8.0 mi SW 16.1 mph - N/A   Scattered Clouds
2:53 PM 84.9 °F 94.1 °F 75.9 °F 74% 29.74 in 8.0 mi WSW 17.3 mph 21.9 mph N/A   Scattered Clouds
3:04 PM 84.9 °F 94.1 °F 75.9 °F 74% 29.78 in 8.0 mi WSW 15.0 mph - N/A   Mostly Cloudy
3:14 PM 86.0 °F 96.0 °F 75.9 °F 72% 29.77 in 9.0 mi SW 13.8 mph - N/A   Scattered Clouds
3:53 PM 86.0 °F 96.9 °F 77.0 °F 74% 29.73 in 9.0 mi WSW 12.7 mph - N/A   Mostly Cloudy
4:11 PM 89.1 °F 99.1 °F 75.0 °F 63% 29.77 in 10.0 mi West 18.4 mph - N/A   Mostly Cloudy
4:18 PM 89.1 °F 98.0 °F 73.9 °F 61% 29.77 in 10.0 mi West 17.3 mph - N/A   Scattered Clouds
4:53 PM 88.0 °F 95.6 °F 73.0 °F 61% 29.71 in 10.0 mi West 15.0 mph - N/A   Partly Cloudy
5:53 PM 88.0 °F 89.6 °F 64.9 °F 46% 29.70 in 10.0 mi NW 16.1 mph - N/A   Clear
6:53 PM 86.0 °F 86.3 °F 62.1 °F 44% 29.71 in 10.0 mi NW 15.0 mph - N/A   Clear
7:53 PM 81.0 °F 82.5 °F 64.0 °F 56% 29.72 in 10.0 mi NW 8.1 mph - N/A   Clear
8:53 PM 73.9 °F - 64.0 °F 71% 29.74 in 10.0 mi NW 8.1 mph - N/A   Clear
9:53 PM 70.0 °F - 64.0 °F 81% 29.77 in 10.0 mi WNW 8.1 mph - N/A   Clear
10:53 PM 69.1 °F - 64.0 °F 84% 29.78 in 10.0 mi West 6.9 mph - N/A   Clear
11:53 PM 69.1 °F - 64.0 °F 84% 29.80 in 10.0 mi WNW 9.2 mph - N/A   Clear